User: anonymous   Login
Location: Diguira
(13.1838°N, 4.9109°W)
Time: 23:14:22
(UTC+00:00)
Language:

SWARM A - Orbit

View from above orbital plane
View from above orbital plane
View from above satellite
View from above satellite

Ground track
Ground track

The orbit data is extracted from the following two-line orbital elements,

1 39452U 13067B   21127.50685560  .00001254  00000-0  25159-4 0  9996
2 39452  87.3645  12.6928 0002699 101.9039 258.2522 15.45541257419217
Epoch (UTC): 07 May 2021 12:09:52
Eccentricity: 0.0002699
inclination: 87.3645°
perigee height: 428 km
apogee height: 431 km
right ascension of ascending node: 12.6928°
argument of perigee: 101.9039°
revolutions per day: 15.45541257
mean anomaly at epoch: 258.2522°
orbit number at epoch: 41921

The dashed part of the orbit path shows where the satellite is in the earth's shadow,  

DLR